Weather History for Iowa Falls, IA

Change the Weather History Date:

Sunday, March 3, 2013

  Actual Average Record
Temperature  
Mean Temperature 24 °F -  
Max Temperature 30 °F 39 °F 69 °F (1983)
Min Temperature 18 °F 21 °F -15 °F (2014)
Degree Days  
Heating Degree Days 41    
Moisture  
Dew Point 17 °F    
Average Humidity 76    
Maximum Humidity 87    
Minimum Humidity 67    
Precipitation  
Precipitation 0.00 in - - ()
Sea Level Pressure  
Sea Level Pressure 30.03 in    
Wind  
Wind Speed 9 mph (ESE)    
Max Wind Speed 18 mph    
Max Gust Speed 16 mph    
Visibility 9 miles    
Events Snow    
Averages and records for this station are not official NWS values.
T = Trace of Precipitation, MM = Missing Value Source: NWS Daily Summary

Daily Weather History Graph

Daily Weather History Graph

Search for Another Location

Airport:

Trip Planner

Search our weather history database for the weather conditions in past years. The results will help you decide how hot, cold, wet, or windy it might be!

Date:

Astronomy

Mar. 03, 2013 Rise Set
Actual Time 6:44 AM CST 6:05 PM CST
Civil Twilight 6:16 AM CST 6:33 PM CST
Nautical Twilight 5:44 AM CST 7:06 PM CST
Astronomical Twilight 5:11 AM CST 7:39 PM CST
Moon No Moon Rise 9:52 AM CST (3/3)
Length of Visible Light 12h 17m
Length of Day
11h 20m
Waning Gibbous, 63% of the Moon is Illuminated
Mar 3
Waning Gibbous
Mar 4
Last Quarter
Mar 11
New
Mar 19
First Quarter
Mar 27
Full

Hourly Weather History & Observations

Time (CST) Temp. Windchill Dew Point Humidity Pressure Visibility Wind Dir Wind Speed Gust Speed Precip Events Conditions
12:15 AM 19.9 °F 14.9 °F 16.3 °F 86% 30.16 in 10.0 mi SE 3.5 mph - N/A   Overcast
12:35 AM 20.7 °F 15.8 °F 17.2 °F 87% 30.16 in 10.0 mi South 3.5 mph - N/A   Overcast
12:55 AM 21.0 °F 13.4 °F 17.2 °F 85% 30.15 in 10.0 mi SSE 5.8 mph - N/A   Overcast
1:35 AM 21.0 °F 12.4 °F 17.1 °F 85% 30.13 in 10.0 mi South 6.9 mph - N/A   Overcast
1:55 AM 20.8 °F 14.4 °F 16.7 °F 84% 30.13 in 10.0 mi SE 4.6 mph - N/A   Overcast
2:15 AM 20.7 °F 13.0 °F 16.7 °F 85% 30.13 in 10.0 mi ESE 5.8 mph - N/A   Overcast
2:55 AM 18.7 °F 10.6 °F 15.3 °F 87% 30.12 in 10.0 mi East 5.8 mph - N/A   Overcast
3:15 AM 18.5 °F 11.7 °F 15.3 °F 87% 30.11 in 10.0 mi SE 4.6 mph - N/A   Overcast
3:35 AM 19.2 °F 12.5 °F 15.6 °F 86% 30.11 in 10.0 mi SE 4.6 mph - N/A   Overcast
3:55 AM 19.9 °F 12.1 °F 15.8 °F 84% 30.10 in 10.0 mi SSE 5.8 mph - N/A   Overcast
4:15 AM 20.1 °F 13.6 °F 16.0 °F 84% 30.10 in 10.0 mi SSE 4.6 mph - N/A   Overcast
4:35 AM 20.3 °F 12.5 °F 16.0 °F 83% 30.09 in 10.0 mi SSE 5.8 mph - N/A   Overcast
4:55 AM 20.3 °F 13.8 °F 15.8 °F 83% 30.09 in 10.0 mi SE 4.6 mph - N/A   Overcast
5:15 AM 20.3 °F 13.8 °F 16.3 °F 85% 30.09 in 10.0 mi SE 4.6 mph - N/A   Overcast
6:15 AM 20.3 °F 13.8 °F 15.8 °F 83% 30.09 in 10.0 mi SE 4.6 mph - N/A   Overcast
6:55 AM 19.9 °F 10.1 °F 15.6 °F 83% 30.08 in 10.0 mi ESE 8.1 mph - N/A   Overcast
7:15 AM 20.1 °F 10.3 °F 15.6 °F 83% 30.08 in 10.0 mi ESE 8.1 mph - N/A   Overcast
7:35 AM 18.5 °F 9.3 °F 14.2 °F 83% 30.09 in 7.0 mi ESE 6.9 mph - N/A   Scattered Clouds
7:55 AM 18.5 °F 7.5 °F 14.0 °F 83% 30.09 in 7.0 mi East 9.2 mph - N/A   Clear
8:15 AM 19.6 °F 8.9 °F 14.4 °F 80% 30.09 in 10.0 mi ESE 9.2 mph - N/A   Clear
8:35 AM 20.7 °F 10.2 °F 14.7 °F 78% 30.08 in 10.0 mi ESE 9.2 mph - N/A   Clear
8:55 AM 20.8 °F 9.0 °F 14.7 °F 77% 30.08 in 7.0 mi East 11.5 mph - N/A   Clear
9:15 AM 20.8 °F 9.0 °F 14.5 °F 77% 30.08 in 10.0 mi East 11.5 mph - N/A   Clear
9:35 AM 22.1 °F 10.6 °F 15.1 °F 74% 30.07 in 10.0 mi ESE 11.5 mph - N/A   Scattered Clouds
9:55 AM 23.0 °F 12.4 °F 15.4 °F 73% 30.07 in 10.0 mi SE 10.4 mph - N/A   Overcast
10:15 AM 23.2 °F 10.8 °F 16.0 °F 74% 30.07 in 10.0 mi ESE 13.8 mph - N/A   Overcast
10:35 AM 24.4 °F 13.0 °F 16.7 °F 72% 30.07 in 10.0 mi SE 12.7 mph 16.1 mph N/A   Overcast
10:55 AM 25.0 °F 13.6 °F 16.7 °F 71% 30.07 in 10.0 mi SE 12.7 mph - N/A   Overcast
11:15 AM 25.2 °F 13.9 °F 16.7 °F 70% 30.07 in 10.0 mi SE 12.7 mph - N/A   Overcast
11:35 AM 26.1 °F 15.0 °F 18.0 °F 71% 30.06 in 10.0 mi SE 12.7 mph - N/A   Overcast
11:55 AM 26.6 °F 16.2 °F 18.0 °F 70% 30.05 in 10.0 mi ESE 11.5 mph - N/A   Overcast
12:15 PM 27.9 °F 17.8 °F 18.7 °F 68% 30.04 in 10.0 mi ESE 11.5 mph - N/A   Overcast
12:35 PM 28.4 °F 18.0 °F 18.7 °F 67% 30.04 in 10.0 mi ESE 12.7 mph - N/A   Mostly Cloudy
12:55 PM 28.4 °F 18.0 °F 18.9 °F 67% 30.03 in 10.0 mi ESE 12.7 mph - N/A   Scattered Clouds
1:15 PM 28.8 °F 19.0 °F 18.9 °F 67% 30.02 in 10.0 mi SE 11.5 mph - N/A   Scattered Clouds
1:35 PM 28.9 °F 16.9 °F 19.4 °F 68% 30.01 in 10.0 mi ESE 17.3 mph - N/A   Clear
1:55 PM 28.9 °F 17.3 °F 19.2 °F 67% 29.99 in 10.0 mi ESE 16.1 mph - N/A   Clear
2:35 PM 30.0 °F 19.5 °F 20.8 °F 69% 29.98 in 10.0 mi ESE 13.8 mph - N/A   Clear
2:55 PM 29.3 °F 18.6 °F 21.4 °F 72% 29.97 in 10.0 mi ESE 13.8 mph - N/A   Clear
3:35 PM 28.6 °F 16.8 °F 21.0 °F 73% 29.97 in 10.0 mi ESE 16.1 mph - N/A   Clear
4:15 PM 27.5 °F 16.3 °F 20.8 °F 76% 29.97 in 10.0 mi East 13.8 mph - N/A   Clear
4:35 PM 27.1 °F 15.9 °F 21.0 °F 78% 29.96 in 10.0 mi ESE 13.8 mph - N/A   Clear
4:55 PM 26.6 °F 15.2 °F 20.7 °F 78% 29.96 in 10.0 mi East 13.8 mph - N/A   Clear
5:15 PM 26.2 °F 14.2 °F 20.1 °F 78% 29.95 in 10.0 mi East 15.0 mph - N/A   Clear
5:35 PM 25.7 °F 14.0 °F 19.4 °F 77% 29.95 in 10.0 mi East 13.8 mph - N/A   Clear
5:55 PM 25.7 °F 13.1 °F 18.7 °F 75% 29.95 in 10.0 mi ESE 16.1 mph - N/A   Mostly Cloudy
6:15 PM 25.7 °F 13.5 °F 18.3 °F 74% 29.94 in 10.0 mi ESE 15.0 mph - N/A   Overcast
6:35 PM 25.7 °F 13.5 °F 17.4 °F 71% 29.94 in 10.0 mi ESE 15.0 mph - N/A   Overcast
6:55 PM 25.7 °F 13.1 °F 16.9 °F 69% 29.94 in 10.0 mi ESE 16.1 mph - N/A   Overcast
7:15 PM 25.7 °F 14.0 °F 16.7 °F 69% 29.95 in 10.0 mi ESE 13.8 mph - N/A   Overcast
7:35 PM 25.7 °F 14.0 °F 16.9 °F 69% 29.95 in 10.0 mi ESE 13.8 mph - N/A   Mostly Cloudy
7:55 PM 25.7 °F 13.1 °F 17.6 °F 71% 29.95 in 10.0 mi ESE 16.1 mph - N/A   Overcast
8:15 PM 25.7 °F 13.1 °F 17.6 °F 71% 29.95 in 10.0 mi ESE 16.1 mph - N/A   Overcast
8:35 PM 26.1 °F 12.7 °F 16.5 °F 67% 29.95 in 10.0 mi ESE 18.4 mph - N/A   Overcast
8:55 PM 26.1 °F 13.6 °F 16.3 °F 67% 29.96 in 10.0 mi ESE 16.1 mph - N/A   Overcast
9:15 PM 25.7 °F 13.1 °F 16.9 °F 69% 29.96 in 10.0 mi ESE 16.1 mph - N/A   Overcast
9:35 PM 25.7 °F 13.1 °F 17.4 °F 71% 29.95 in 10.0 mi ESE 16.1 mph - N/A   Overcast
9:55 PM 25.7 °F 13.1 °F 17.6 °F 71% 29.94 in 10.0 mi ESE 16.1 mph - N/A   Overcast
10:15 PM 25.7 °F 12.7 °F 17.6 °F 71% 29.94 in 10.0 mi ESE 17.3 mph - N/A   Overcast
10:35 PM 25.5 °F 13.8 °F 17.8 °F 72% 29.95 in 10.0 mi ESE 13.8 mph - N/A   Overcast
10:55 PM 25.7 °F 15.1 °F 17.4 °F 71% 29.96 in 7.0 mi SE 11.5 mph - N/A Snow Light Snow
11:15 PM 24.8 °F 12.4 °F 19.2 °F 79% 29.96 in 2.5 mi ESE 15.0 mph - N/A Snow Light Snow
11:35 PM 24.3 °F 11.7 °F 19.9 °F 84% 29.96 in 2.0 mi ESE 15.0 mph - N/A Snow Light Snow
11:55 PM 23.9 °F 10.8 °F 20.3 °F 86% 29.95 in 1.5 mi ESE 16.1 mph - N/A Snow Light Snow